Погода в Трес-Лагоасе

Бразилия     20°47′41″S   51°40′50″W
темп.,
°C
ветер,
м/с
пор.,
м/с
влажн.,
%
обл.,
%
осадки,
мм/ч
давл.,
гПа
погр.,
м
26 февраля, пт
пт2600:00+23в1293100 9.5 100955
03:00+22с1295100 15.1 100861
06:00+21юв129591 0.0 100828
09:00+25в228365 0.1 1010494
12:00+29всв116658 0.1 1010979
15:00+29с016954 6.4 1007779
18:00+27ю24836 5.0 1006111
21:00+23юв36923 6.1 1009146
27 февраля, сб
сб2700:00+22юв37940 0.0 1010191
03:00+21вюв26971 0.0 1009209
06:00+20юв23982 0.0 1010111
09:00+24вюв358612 0.0 1012474
12:00+29в336447 0.0 10111133
15:00+29вюв336469 0.1 10081222
18:00+28юв357135 0.1 1007356
21:00+24юв378218 0.1 1008159
28 февраля, вс
вс2800:00+22юв36890 0.5 1009148
03:00+21в38960 1.3 1008250
06:00+21всв39977 0.0 1009404
09:00+23св599044 0.0 1010668
12:00+27ссв567772 1.9 1010959
15:00+28св467550 8.8 10071164
18:00+25всв388628 4.4 1006546
21:00+23св389116 4.8 1008269
1 марта, пн
пн100:00+22св3119466 0.0 1009403
03:00+21св399477 0.0 1008372
06:00+21св399562 0.0 1010329
09:00+24ссв488574 0.1 1011543
12:00+27ссв587823 5.1 1010944
15:00+29ссв476945 10.4 10071401
18:00+27св487754 0.4 1006428
21:00+23св379047 1.4 1009193
2 марта, вт
вт200:00+22ссв3893100 0.0 1010239
03:00+22с3893100 0.0 1010291
06:00+21ссв2493100 0.0 1011138
09:00+23ссв4886100 0.0 1013443
12:00+28с567553 4.8 1012984
15:00+28с457341 9.3 10081018
18:00+27ссв237847 3.9 100897
21:00+24св128268 4.0 101124